CPA520 VHHH-RJAA

Flight info

Callsign CPA520
Flight time 3h 28m
Altitude 37000
Route DUMEP V631 ENVAR M750 MUKEP Y891 AGIMO Y89 GUPER Y81 RUTAS
Aircraft B77W/H-SDE1E2E3FGHIJ2J3J4J5M1RWXY/LB1D1

Departure

Time 2026-05-05 07:31
Airport Hong Kong International Airport (VHHH)

Arrival

Time 2026-05-05 10:59
Airport Narita International Airport (RJAA)
Time Latitude Longitude Altitude Speed Heading
2026-05-05 06:39 22.31479 113.93066 42 ft 0 kts 161°
2026-05-05 07:11 22.31487 113.93063 42 ft 4 kts 161°
2026-05-05 07:11 22.31512 113.93054 41 ft 4 kts 161°
2026-05-05 07:11 22.31535 113.93046 41 ft 2 kts 161°
2026-05-05 07:11 22.31558 113.93042 39 ft 4 kts 201°
2026-05-05 07:12 22.31576 113.93059 37 ft 4 kts 248°
2026-05-05 07:12 22.31585 113.93085 37 ft 4 kts 251°
2026-05-05 07:12 22.31587 113.93093 37 ft 5 kts 251°
2026-05-05 07:15 22.31586 113.93089 37 ft 2 kts 251°
2026-05-05 07:15 22.31573 113.93050 39 ft 8 kts 251°
2026-05-05 07:15 22.31555 113.92994 42 ft 8 kts 251°
2026-05-05 07:16 22.31536 113.92934 42 ft 9 kts 251°
2026-05-05 07:16 22.31516 113.92873 42 ft 9 kts 251°
2026-05-05 07:16 22.31497 113.92814 42 ft 8 kts 251°
2026-05-05 07:16 22.31494 113.92766 42 ft 7 kts 282°
2026-05-05 07:17 22.31512 113.92720 42 ft 7 kts 295°
2026-05-05 07:17 22.31533 113.92673 42 ft 7 kts 296°
2026-05-05 07:17 22.31555 113.92623 42 ft 9 kts 296°
2026-05-05 07:17 22.31584 113.92558 42 ft 10 kts 296°
2026-05-05 07:18 22.31613 113.92492 42 ft 10 kts 296°
2026-05-05 07:18 22.31659 113.92445 42 ft 9 kts 337°
2026-05-05 07:18 22.31719 113.92422 42 ft 8 kts 341°
2026-05-05 07:18 22.31742 113.92375 42 ft 8 kts 266°
2026-05-05 07:19 22.31718 113.92296 42 ft 14 kts 251°
2026-05-05 07:19 22.31678 113.92172 41 ft 21 kts 251°
2026-05-05 07:19 22.31625 113.92008 41 ft 24 kts 251°
2026-05-05 07:19 22.31569 113.91835 41 ft 24 kts 251°
2026-05-05 07:20 22.31514 113.91665 42 ft 24 kts 251°
2026-05-05 07:20 22.31458 113.91493 42 ft 24 kts 251°
2026-05-05 07:20 22.31403 113.91320 43 ft 24 kts 251°
2026-05-05 07:20 22.31348 113.91151 43 ft 22 kts 251°
2026-05-05 07:21 22.31297 113.90995 42 ft 22 kts 251°
2026-05-05 07:21 22.31249 113.90845 42 ft 20 kts 251°
2026-05-05 07:21 22.31202 113.90700 42 ft 20 kts 251°
2026-05-05 07:21 22.31160 113.90571 41 ft 15 kts 250°
2026-05-05 07:22 22.31129 113.90474 41 ft 14 kts 251°
2026-05-05 07:22 22.31098 113.90378 41 ft 14 kts 251°
2026-05-05 07:22 22.31067 113.90281 41 ft 14 kts 251°
2026-05-05 07:22 22.31036 113.90185 41 ft 14 kts 251°
2026-05-05 07:23 22.31005 113.90089 42 ft 14 kts 251°
2026-05-05 07:23 22.30974 113.89992 42 ft 14 kts 251°
2026-05-05 07:23 22.30953 113.89929 42 ft 13 kts 251°
2026-05-05 07:23 22.30930 113.89859 42 ft 6 kts 250°
2026-05-05 07:24 22.30933 113.89818 42 ft 6 kts 308°
2026-05-05 07:24 22.30956 113.89805 42 ft 0 kts 338°
2026-05-05 07:28 22.30989 113.89791 42 ft 9 kts 340°
2026-05-05 07:28 22.31045 113.89769 41 ft 7 kts 340°
2026-05-05 07:28 22.31085 113.89778 41 ft 6 kts 45°
2026-05-05 07:29 22.31095 113.89802 41 ft 0 kts 69°
2026-05-05 07:30 22.31096 113.89806 41 ft 6 kts 69°
2026-05-05 07:30 22.31398 113.90738 42 ft 138 kts 71°
2026-05-05 07:30 22.31784 113.91907 163 ft 182 kts 71°
2026-05-05 07:31 22.32174 113.93200 879 ft 183 kts 72°
2026-05-05 07:31 22.32588 113.94522 1540 ft 192 kts 72°
2026-05-05 07:31 22.33052 113.95946 1992 ft 206 kts 71°
2026-05-05 07:31 22.33641 113.97395 2534 ft 215 kts 60°
2026-05-05 07:32 22.34494 113.98760 3121 ft 223 kts 56°
2026-05-05 07:32 22.35393 114.00130 3731 ft 228 kts 56°
2026-05-05 07:32 22.36311 114.01547 4374 ft 232 kts 56°
2026-05-05 07:32 22.37239 114.03001 5004 ft 238 kts 56°
2026-05-05 07:33 22.38182 114.04491 5648 ft 242 kts 56°
2026-05-05 07:33 22.39136 114.06004 6305 ft 245 kts 56°
2026-05-05 07:33 22.39981 114.07608 6802 ft 250 kts 74°
2026-05-05 07:33 22.40003 114.09486 7145 ft 260 kts 108°
2026-05-05 07:34 22.39308 114.11356 7387 ft 278 kts 116°
2026-05-05 07:34 22.38494 114.13311 7907 ft 290 kts 116°
2026-05-05 07:34 22.37658 114.15327 8577 ft 298 kts 116°
2026-05-05 07:34 22.36809 114.17388 9332 ft 302 kts 116°
2026-05-05 07:35 22.35979 114.19428 10057 ft 306 kts 116°
2026-05-05 07:35 22.35086 114.21633 10546 ft 323 kts 116°
2026-05-05 07:35 22.34147 114.23949 10721 ft 350 kts 116°
2026-05-05 07:35 22.32975 114.26321 10868 ft 368 kts 131°
2026-05-05 07:36 22.30992 114.28118 11288 ft 379 kts 155°
2026-05-05 07:36 22.28570 114.29301 11941 ft 386 kts 160°
2026-05-05 07:36 22.26084 114.30463 12741 ft 393 kts 159°
2026-05-05 07:36 22.23588 114.31710 13638 ft 397 kts 155°
2026-05-05 07:37 22.21231 114.33335 14353 ft 407 kts 147°
2026-05-05 07:37 22.18955 114.35205 15051 ft 414 kts 145°
2026-05-05 07:37 22.16791 114.37039 15730 ft 419 kts 146°
2026-05-05 07:37 22.14365 114.39055 16499 ft 424 kts 147°
2026-05-05 07:38 22.11989 114.40967 17213 ft 429 kts 148°
2026-05-05 07:38 22.09602 114.42852 17905 ft 434 kts 148°
2026-05-05 07:38 22.07165 114.44766 18544 ft 439 kts 148°
2026-05-05 07:38 22.04683 114.46717 19117 ft 444 kts 148°
2026-05-05 07:39 22.02169 114.48697 19696 ft 449 kts 148°
2026-05-05 07:39 21.99638 114.50690 20267 ft 454 kts 148°
2026-05-05 07:39 21.97074 114.52728 20823 ft 460 kts 146°
2026-05-05 07:39 21.94768 114.55174 21398 ft 472 kts 132°
2026-05-05 07:40 21.92780 114.58021 21946 ft 478 kts 129°
2026-05-05 07:40 21.90836 114.60958 22449 ft 484 kts 128°
2026-05-05 07:40 21.88866 114.63917 22962 ft 489 kts 129°
2026-05-05 07:40 21.86844 114.66885 23447 ft 493 kts 130°
2026-05-05 07:41 21.84776 114.69852 23881 ft 497 kts 130°
2026-05-05 07:41 21.82678 114.72825 24317 ft 500 kts 130°
2026-05-05 07:41 21.80590 114.75773 24771 ft 503 kts 130°
2026-05-05 07:41 21.78466 114.78775 25219 ft 506 kts 130°
2026-05-05 07:42 21.76471 114.81909 25549 ft 512 kts 120°
2026-05-05 07:42 21.75188 114.85516 25855 ft 522 kts 104°
2026-05-05 07:42 21.74684 114.89397 26285 ft 526 kts 92°
2026-05-05 07:42 21.74893 114.93312 26697 ft 524 kts 82°
2026-05-05 07:43 21.75353 114.97228 26976 ft 530 kts 82°
2026-05-05 07:43 21.75815 115.01193 27316 ft 535 kts 82°
2026-05-05 07:43 21.76263 115.05183 27713 ft 537 kts 83°
2026-05-05 07:43 21.76694 115.09186 28135 ft 539 kts 83°
2026-05-05 07:44 21.77111 115.13209 28516 ft 542 kts 83°
2026-05-05 07:44 21.77515 115.17200 28825 ft 546 kts 83°
2026-05-05 07:44 21.77921 115.21272 29144 ft 549 kts 83°
2026-05-05 07:44 21.78326 115.25366 29469 ft 551 kts 83°
2026-05-05 07:45 21.78733 115.29479 29788 ft 553 kts 83°
2026-05-05 07:45 21.79141 115.33610 30164 ft 554 kts 83°
2026-05-05 07:45 21.79548 115.37718 30569 ft 552 kts 83°
2026-05-05 07:45 21.79953 115.41821 31005 ft 551 kts 83°
2026-05-05 07:46 21.80357 115.45910 31424 ft 549 kts 83°
2026-05-05 07:46 21.80760 115.49998 31838 ft 548 kts 83°
2026-05-05 07:46 21.81161 115.54082 32234 ft 548 kts 83°
2026-05-05 07:46 21.81561 115.58157 32640 ft 547 kts 83°
2026-05-05 07:47 21.81958 115.62221 33056 ft 546 kts 83°
2026-05-05 07:47 21.82349 115.66228 33471 ft 544 kts 83°
2026-05-05 07:47 21.82743 115.70283 33874 ft 543 kts 83°
2026-05-05 07:47 21.83135 115.74323 34232 ft 542 kts 83°
2026-05-05 07:48 21.83525 115.78354 34588 ft 541 kts 83°
2026-05-05 07:48 21.83912 115.82372 34938 ft 540 kts 83°
2026-05-05 07:48 21.84299 115.86393 35276 ft 538 kts 83°
2026-05-05 07:48 21.84684 115.90401 35592 ft 538 kts 83°
2026-05-05 07:49 21.85067 115.94402 35913 ft 537 kts 83°
2026-05-05 07:49 21.85448 115.98391 36228 ft 536 kts 83°
2026-05-05 07:49 21.85828 116.02379 36533 ft 535 kts 83°
2026-05-05 07:49 21.86206 116.06361 36839 ft 534 kts 83°
2026-05-05 07:50 21.86964 116.14365 36972 ft 540 kts 83°
2026-05-05 07:50 21.87715 116.22341 36964 ft 535 kts 83°
2026-05-05 07:51 21.88459 116.30290 36974 ft 532 kts 83°
2026-05-05 07:51 21.89196 116.38201 36975 ft 531 kts 83°
2026-05-05 07:52 21.89930 116.46116 36978 ft 531 kts 83°
2026-05-05 07:52 21.90661 116.54046 36978 ft 532 kts 83°
2026-05-05 07:53 21.91386 116.61945 36978 ft 534 kts 83°
2026-05-05 07:53 21.92112 116.69906 36977 ft 535 kts 83°
2026-05-05 07:54 21.92836 116.77887 36977 ft 536 kts 84°
2026-05-05 07:54 21.93558 116.85886 36975 ft 537 kts 84°
2026-05-05 07:55 21.94277 116.93896 36977 ft 537 kts 84°
2026-05-05 07:55 21.94991 117.01904 36980 ft 537 kts 84°
2026-05-05 07:56 21.95703 117.09927 36971 ft 538 kts 84°
2026-05-05 07:56 21.96411 117.17949 36969 ft 537 kts 84°
2026-05-05 07:57 21.97110 117.25915 36971 ft 536 kts 84°
2026-05-05 07:57 21.97810 117.33928 36974 ft 536 kts 84°
2026-05-05 07:58 21.98504 117.41922 36971 ft 536 kts 84°
2026-05-05 07:58 21.99959 117.49755 36972 ft 532 kts 69°
2026-05-05 07:59 22.02968 117.56985 36970 ft 527 kts 56°
2026-05-05 07:59 22.06837 117.63685 36974 ft 527 kts 54°
2026-05-05 08:00 22.10732 117.70384 36978 ft 528 kts 55°
2026-05-05 08:00 22.14549 117.77101 36979 ft 529 kts 56°
2026-05-05 08:01 22.18381 117.83910 36977 ft 531 kts 56°
2026-05-05 08:01 22.22214 117.90723 36975 ft 531 kts 56°
2026-05-05 08:02 22.26055 117.97549 36989 ft 532 kts 56°
2026-05-05 08:02 22.29937 118.04362 37003 ft 534 kts 54°
2026-05-05 08:03 22.33939 118.11148 36959 ft 535 kts 54°
2026-05-05 08:03 22.37919 118.17927 36972 ft 533 kts 54°
2026-05-05 08:04 22.41849 118.24703 36970 ft 532 kts 55°
2026-05-05 08:04 22.45708 118.31534 36981 ft 531 kts 56°
2026-05-05 08:05 22.49520 118.38304 36983 ft 530 kts 55°
2026-05-05 08:05 22.53370 118.45120 36984 ft 531 kts 55°
2026-05-05 08:06 22.57218 118.51935 36983 ft 531 kts 55°
2026-05-05 08:06 22.61107 118.58766 36981 ft 532 kts 55°
2026-05-05 08:07 22.65005 118.65584 36982 ft 533 kts 55°
2026-05-05 08:07 22.68885 118.72388 36983 ft 534 kts 55°
2026-05-05 08:08 22.72788 118.79251 36981 ft 535 kts 55°
2026-05-05 08:08 22.76689 118.86124 36982 ft 536 kts 55°
2026-05-05 08:09 22.80593 118.93010 36982 ft 536 kts 55°
2026-05-05 08:09 22.84498 118.99905 36981 ft 536 kts 55°
2026-05-05 08:10 22.88397 119.06801 36987 ft 537 kts 56°
2026-05-05 08:10 22.91646 119.12553 36966 ft 538 kts 55°
2026-05-05 08:11 22.95547 119.19467 36986 ft 537 kts 56°
2026-05-05 08:11 23.00074 119.27504 36992 ft 537 kts 56°
2026-05-05 08:12 23.03312 119.33260 36971 ft 537 kts 56°
2026-05-05 08:12 23.07200 119.40180 36983 ft 537 kts 56°
2026-05-05 08:13 23.11085 119.47106 36977 ft 537 kts 56°
2026-05-05 08:13 23.14972 119.54043 36972 ft 537 kts 56°
2026-05-05 08:14 23.18860 119.60992 36976 ft 538 kts 56°
2026-05-05 08:14 23.22747 119.67954 36979 ft 538 kts 56°
2026-05-05 08:15 23.26631 119.74923 36983 ft 539 kts 56°
2026-05-05 08:15 23.30518 119.81910 36985 ft 540 kts 56°
2026-05-05 08:16 23.34432 119.88896 36984 ft 541 kts 53°
2026-05-05 08:16 23.39006 119.95269 36985 ft 535 kts 42°
2026-05-05 08:17 23.44351 120.00845 36992 ft 531 kts 38°
2026-05-05 08:17 23.49795 120.06335 37024 ft 538 kts 38°
2026-05-05 08:18 23.55271 120.11937 36993 ft 536 kts 39°
2026-05-05 08:18 23.60651 120.17507 36978 ft 531 kts 38°
2026-05-05 08:19 23.65984 120.23034 36988 ft 527 kts 38°
2026-05-05 08:19 23.71300 120.28542 36992 ft 527 kts 38°
2026-05-05 08:20 23.76595 120.34032 37005 ft 529 kts 38°
2026-05-05 08:20 23.81942 120.39584 37013 ft 532 kts 38°
2026-05-05 08:21 23.87324 120.45182 37035 ft 536 kts 38°
2026-05-05 08:21 23.92747 120.50834 37033 ft 540 kts 39°
2026-05-05 08:22 23.98178 120.56556 36985 ft 541 kts 39°
2026-05-05 08:22 24.03528 120.62222 36996 ft 532 kts 39°
2026-05-05 08:23 24.08861 120.67860 37008 ft 533 kts 39°
2026-05-05 08:23 24.14200 120.73505 37023 ft 535 kts 39°
2026-05-05 08:24 24.19539 120.79156 37019 ft 539 kts 39°
2026-05-05 08:24 24.24943 120.84887 37035 ft 542 kts 39°
2026-05-05 08:25 24.30378 120.90659 36992 ft 544 kts 39°
2026-05-05 08:25 24.35751 120.96382 37043 ft 535 kts 39°
2026-05-05 08:26 24.41102 121.02110 37020 ft 538 kts 41°
2026-05-05 08:26 24.45954 121.08398 37080 ft 542 kts 48°
2026-05-05 08:27 24.50619 121.14947 37092 ft 543 kts 48°
2026-05-05 08:27 24.55311 121.21510 37035 ft 547 kts 48°
2026-05-05 08:28 24.60056 121.28076 37045 ft 550 kts 47°
2026-05-05 08:28 24.64829 121.34665 37048 ft 551 kts 47°
2026-05-05 08:29 24.69568 121.41222 37040 ft 551 kts 48°
2026-05-05 08:30 24.76703 121.51121 36991 ft 549 kts 48°
2026-05-05 08:30 24.81432 121.57690 37006 ft 547 kts 47°
2026-05-05 08:31 24.86168 121.64279 37009 ft 551 kts 48°
2026-05-05 08:31 24.90939 121.70898 36989 ft 550 kts 46°
2026-05-05 08:32 24.95929 121.77289 37016 ft 550 kts 44°
2026-05-05 08:32 25.00989 121.83607 36979 ft 548 kts 45°
2026-05-05 08:33 25.05960 121.89940 37005 ft 546 kts 45°
2026-05-05 08:33 25.10908 121.96289 37006 ft 545 kts 45°
2026-05-05 08:34 25.15850 122.02637 37012 ft 546 kts 45°
2026-05-05 08:34 25.20771 122.09009 37037 ft 552 kts 46°
2026-05-05 08:35 25.25776 122.15505 37013 ft 557 kts 46°
2026-05-05 08:35 25.30796 122.22030 36998 ft 553 kts 46°
2026-05-05 08:36 25.35751 122.28476 36995 ft 548 kts 46°
2026-05-05 08:36 25.40671 122.34881 37018 ft 545 kts 46°
2026-05-05 08:37 25.45577 122.41276 37025 ft 545 kts 46°
2026-05-05 08:37 25.50487 122.47686 37025 ft 547 kts 46°
2026-05-05 08:38 25.55389 122.54064 37034 ft 549 kts 46°
2026-05-05 08:38 25.60368 122.60519 37026 ft 554 kts 46°
2026-05-05 08:39 25.65367 122.67018 37033 ft 554 kts 46°
2026-05-05 08:39 25.70363 122.73529 37030 ft 554 kts 46°
2026-05-05 08:40 25.75357 122.80047 37044 ft 554 kts 46°
2026-05-05 08:40 25.80348 122.86570 37046 ft 555 kts 46°
2026-05-05 08:41 25.85339 122.93102 37035 ft 555 kts 46°
2026-05-05 08:41 25.90322 122.99631 37040 ft 554 kts 46°
2026-05-05 08:42 25.95303 123.06172 37052 ft 554 kts 46°
2026-05-05 08:42 26.00256 123.12690 37035 ft 557 kts 46°
2026-05-05 08:43 26.05248 123.19270 37043 ft 556 kts 46°
2026-05-05 08:43 26.10226 123.25843 37056 ft 555 kts 46°
2026-05-05 08:44 26.15215 123.32437 37046 ft 558 kts 46°
2026-05-05 08:44 26.20216 123.39058 37019 ft 558 kts 46°
2026-05-05 08:45 26.25203 123.45671 37050 ft 556 kts 46°
2026-05-05 08:45 26.30172 123.52269 37054 ft 556 kts 46°
2026-05-05 08:46 26.35144 123.58879 37030 ft 556 kts 47°
2026-05-05 08:46 26.40119 123.65503 37039 ft 557 kts 47°
2026-05-05 08:47 26.45101 123.72148 37066 ft 558 kts 47°
2026-05-05 08:47 26.50079 123.78797 37063 ft 559 kts 47°
2026-05-05 08:48 26.55071 123.85474 37058 ft 561 kts 47°
2026-05-05 08:48 26.60069 123.92171 37064 ft 561 kts 47°
2026-05-05 08:49 26.65035 123.98835 37053 ft 562 kts 47°
2026-05-05 08:49 26.70043 124.05551 37060 ft 562 kts 47°
2026-05-05 08:50 26.75064 124.12276 37070 ft 563 kts 47°
2026-05-05 08:50 26.80078 124.19008 37067 ft 563 kts 47°
2026-05-05 08:51 26.85089 124.25749 37065 ft 563 kts 47°
2026-05-05 08:51 26.90098 124.32499 37069 ft 563 kts 47°
2026-05-05 08:52 26.95106 124.39258 37073 ft 564 kts 47°
2026-05-05 08:52 27.00087 124.45983 37074 ft 564 kts 47°
2026-05-05 08:53 27.05106 124.52745 37071 ft 564 kts 47°
2026-05-05 08:53 27.10127 124.59516 37075 ft 564 kts 47°
2026-05-05 08:54 27.15143 124.66297 37074 ft 565 kts 47°
2026-05-05 08:54 27.20159 124.73091 37079 ft 565 kts 47°
2026-05-05 08:55 27.25173 124.79893 37079 ft 565 kts 47°
2026-05-05 08:55 27.30188 124.86707 37085 ft 565 kts 47°
2026-05-05 08:56 27.35197 124.93523 37085 ft 566 kts 47°
2026-05-05 08:56 27.40216 125.00363 37088 ft 566 kts 47°
2026-05-05 08:57 27.45218 125.07128 37086 ft 566 kts 47°
2026-05-05 08:57 27.50275 125.13938 37087 ft 566 kts 47°
2026-05-05 08:58 27.54473 125.19602 37086 ft 567 kts 47°
2026-05-05 08:58 27.59523 125.26437 37089 ft 567 kts 47°
2026-05-05 08:59 27.64569 125.33285 37097 ft 568 kts 47°
2026-05-05 08:59 27.69618 125.40147 37094 ft 568 kts 47°
2026-05-05 09:00 27.74668 125.47019 37099 ft 569 kts 47°
2026-05-05 09:00 27.79719 125.53904 37100 ft 569 kts 47°
2026-05-05 09:01 27.84765 125.60793 37099 ft 569 kts 47°
2026-05-05 09:01 27.89809 125.67690 37104 ft 569 kts 47°
2026-05-05 09:02 27.94850 125.74595 37097 ft 569 kts 47°
2026-05-05 09:02 27.99861 125.81469 37099 ft 569 kts 47°
2026-05-05 09:03 28.04895 125.88387 37102 ft 569 kts 47°
2026-05-05 09:03 28.09927 125.95312 37103 ft 569 kts 48°
2026-05-05 09:04 28.14962 126.02253 37097 ft 569 kts 48°
2026-05-05 09:04 28.19994 126.09202 37106 ft 569 kts 48°
2026-05-05 09:05 28.25011 126.16140 37115 ft 570 kts 48°
2026-05-05 09:05 28.30004 126.23058 37107 ft 570 kts 48°
2026-05-05 09:06 28.35036 126.30040 37103 ft 571 kts 48°
2026-05-05 09:06 28.40057 126.37018 37105 ft 571 kts 48°
2026-05-05 09:07 28.45081 126.44013 37107 ft 571 kts 48°
2026-05-05 09:07 28.50067 126.50966 37108 ft 571 kts 48°
2026-05-05 09:08 28.55085 126.57976 37108 ft 571 kts 48°
2026-05-05 09:08 28.60099 126.64992 37106 ft 572 kts 48°
2026-05-05 09:09 28.65114 126.72020 37106 ft 572 kts 48°
2026-05-05 09:09 28.70120 126.79049 37100 ft 572 kts 48°
2026-05-05 09:10 28.75131 126.86095 37104 ft 572 kts 48°
2026-05-05 09:10 28.80126 126.93132 37106 ft 572 kts 48°
2026-05-05 09:11 28.85125 127.00186 37107 ft 572 kts 48°
2026-05-05 09:11 28.90095 127.07210 37108 ft 572 kts 48°
2026-05-05 09:12 28.95092 127.14284 37108 ft 572 kts 48°
2026-05-05 09:12 29.00091 127.21375 37104 ft 572 kts 48°
2026-05-05 09:13 29.05081 127.28464 37099 ft 573 kts 48°
2026-05-05 09:13 29.10079 127.35576 37112 ft 573 kts 49°
2026-05-05 09:14 29.15071 127.42693 37105 ft 573 kts 49°
2026-05-05 09:14 29.20056 127.49811 37099 ft 573 kts 49°
2026-05-05 09:15 29.25037 127.56938 37105 ft 573 kts 49°
2026-05-05 09:15 29.29980 127.64022 37109 ft 573 kts 49°
2026-05-05 09:16 29.34955 127.71163 37108 ft 573 kts 49°
2026-05-05 09:16 29.39924 127.78308 37107 ft 573 kts 49°
2026-05-05 09:17 29.44892 127.85466 37110 ft 573 kts 49°
2026-05-05 09:17 29.49850 127.92623 37107 ft 573 kts 49°
2026-05-05 09:18 29.54811 127.99791 37116 ft 573 kts 49°
2026-05-05 09:18 29.59737 128.06909 37102 ft 573 kts 49°
2026-05-05 09:19 29.64691 128.14078 37112 ft 573 kts 49°
2026-05-05 09:19 29.69648 128.21269 37126 ft 573 kts 49°
2026-05-05 09:20 29.74595 128.28460 37113 ft 573 kts 49°
2026-05-05 09:20 29.79543 128.35664 37119 ft 573 kts 49°
2026-05-05 09:21 29.84487 128.42876 37117 ft 574 kts 49°
2026-05-05 09:21 29.89405 128.50061 37120 ft 574 kts 49°
2026-05-05 09:22 29.94353 128.57305 37121 ft 574 kts 49°
2026-05-05 09:22 29.99293 128.64549 37125 ft 574 kts 49°
2026-05-05 09:23 30.04233 128.71807 37121 ft 574 kts 49°
2026-05-05 09:23 30.09163 128.79063 37128 ft 574 kts 49°
2026-05-05 09:24 30.14055 128.86276 37122 ft 574 kts 49°
2026-05-05 09:24 30.18972 128.93541 37127 ft 573 kts 49°
2026-05-05 09:25 30.23884 129.00809 37128 ft 573 kts 49°
2026-05-05 09:25 30.28790 129.08077 37131 ft 573 kts 49°
2026-05-05 09:26 30.33685 129.15343 37129 ft 572 kts 49°
2026-05-05 09:26 30.38584 129.22629 37130 ft 573 kts 50°
2026-05-05 09:27 30.43477 129.29922 37131 ft 573 kts 50°
2026-05-05 09:27 30.48333 129.37173 37131 ft 573 kts 50°
2026-05-05 09:28 30.53219 129.44481 37135 ft 573 kts 50°
2026-05-05 09:28 30.58101 129.51797 37138 ft 573 kts 50°
2026-05-05 09:29 30.62981 129.59124 37137 ft 574 kts 50°
2026-05-05 09:29 30.67859 129.66461 37133 ft 574 kts 50°
2026-05-05 09:30 30.72736 129.73811 37135 ft 574 kts 50°
2026-05-05 09:30 30.77584 129.81131 37136 ft 574 kts 50°
2026-05-05 09:31 30.82447 129.88487 37134 ft 574 kts 50°
2026-05-05 09:31 30.87039 129.96099 37140 ft 575 kts 57°
2026-05-05 09:32 30.91222 130.04032 37137 ft 575 kts 58°
2026-05-05 09:32 30.95370 130.12001 37140 ft 575 kts 57°
2026-05-05 09:33 30.99551 130.19945 37139 ft 575 kts 57°
2026-05-05 09:33 31.03751 130.27878 37137 ft 575 kts 57°
2026-05-05 09:34 31.07947 130.35814 37142 ft 575 kts 57°
2026-05-05 09:34 31.12139 130.43768 37142 ft 575 kts 57°
2026-05-05 09:35 31.16326 130.51734 37144 ft 575 kts 57°
2026-05-05 09:35 31.22567 130.63640 37154 ft 576 kts 57°
2026-05-05 09:36 31.26749 130.71638 37148 ft 576 kts 57°
2026-05-05 09:36 31.30924 130.79638 37153 ft 576 kts 57°
2026-05-05 09:37 31.35093 130.87645 37149 ft 576 kts 57°
2026-05-05 09:37 31.39254 130.95652 37153 ft 576 kts 57°
2026-05-05 09:38 31.43403 131.03650 37160 ft 575 kts 58°
2026-05-05 09:38 31.47556 131.11676 37159 ft 575 kts 58°
2026-05-05 09:39 31.51703 131.19709 37161 ft 576 kts 58°
2026-05-05 09:39 31.55821 131.27700 37176 ft 576 kts 57°
2026-05-05 09:40 31.59959 131.35746 37168 ft 576 kts 58°
2026-05-05 09:40 31.64082 131.43786 37169 ft 575 kts 58°
2026-05-05 09:41 31.68205 131.51848 37171 ft 575 kts 58°
2026-05-05 09:41 31.72315 131.59905 37170 ft 575 kts 58°
2026-05-05 09:42 31.76420 131.67970 37150 ft 575 kts 58°
2026-05-05 09:42 31.80519 131.76039 37158 ft 575 kts 58°
2026-05-05 09:43 31.84617 131.84123 37177 ft 575 kts 58°
2026-05-05 09:43 31.88690 131.92174 37166 ft 576 kts 58°
2026-05-05 09:44 31.92778 132.00273 37167 ft 576 kts 58°
2026-05-05 09:44 31.96868 132.08395 37170 ft 577 kts 58°
2026-05-05 09:45 32.00957 132.16530 37165 ft 577 kts 58°
2026-05-05 09:45 32.05041 132.24675 37169 ft 577 kts 58°
2026-05-05 09:46 32.09129 132.32846 37173 ft 578 kts 58°
2026-05-05 09:46 32.13165 132.41043 37171 ft 578 kts 62°
2026-05-05 09:47 32.16789 132.49440 37172 ft 578 kts 63°
2026-05-05 09:47 32.20333 132.57969 37175 ft 578 kts 64°
2026-05-05 09:48 32.23317 132.65114 37172 ft 579 kts 63°
2026-05-05 09:48 32.26878 132.73568 37180 ft 579 kts 63°
2026-05-05 09:49 32.30472 132.82089 37174 ft 579 kts 63°
2026-05-05 09:49 32.34054 132.90610 37175 ft 578 kts 63°
2026-05-05 09:50 32.37632 132.99150 37181 ft 578 kts 63°
2026-05-05 09:50 32.41191 133.07667 37184 ft 578 kts 63°
2026-05-05 09:51 32.44753 133.16211 37190 ft 578 kts 63°
2026-05-05 09:51 32.48310 133.24765 37191 ft 578 kts 63°
2026-05-05 09:52 32.51838 133.33268 37190 ft 578 kts 64°
2026-05-05 09:52 32.55385 133.41838 37193 ft 579 kts 64°
2026-05-05 09:53 32.58936 133.50394 37194 ft 579 kts 63°
2026-05-05 09:53 32.62513 133.58960 37191 ft 579 kts 63°
2026-05-05 09:54 32.66062 133.67551 37193 ft 579 kts 64°
2026-05-05 09:54 32.69570 133.76169 37196 ft 579 kts 64°
2026-05-05 09:55 32.73071 133.84784 37200 ft 579 kts 64°
2026-05-05 09:55 32.76553 133.93354 37201 ft 580 kts 64°
2026-05-05 09:56 32.80052 134.01984 37199 ft 580 kts 64°
2026-05-05 09:56 32.83207 134.10797 37194 ft 579 kts 73°
2026-05-05 09:57 32.85487 134.19982 37207 ft 578 kts 76°
2026-05-05 09:57 32.87685 134.29191 37202 ft 579 kts 76°
2026-05-05 09:58 32.89942 134.38394 37198 ft 579 kts 75°
2026-05-05 09:58 32.92230 134.47597 37198 ft 579 kts 75°
2026-05-05 09:59 32.94509 134.56803 37200 ft 580 kts 75°
2026-05-05 09:59 32.96775 134.66020 37199 ft 580 kts 75°
2026-05-05 10:00 32.99018 134.75175 37198 ft 580 kts 75°
2026-05-05 10:00 33.00733 134.84537 37195 ft 576 kts 85°
2026-05-05 10:01 33.01697 134.94001 37203 ft 575 kts 87°
2026-05-05 10:01 33.02658 135.03464 37201 ft 576 kts 86°
2026-05-05 10:02 33.03693 135.12929 37206 ft 576 kts 86°
2026-05-05 10:02 33.04718 135.22395 37200 ft 576 kts 86°
2026-05-05 10:03 33.05718 135.31858 37207 ft 575 kts 86°
2026-05-05 10:03 33.06709 135.41315 37210 ft 575 kts 86°
2026-05-05 10:04 33.07691 135.50720 37204 ft 575 kts 86°
2026-05-05 10:04 33.08672 135.60175 37212 ft 575 kts 86°
2026-05-05 10:05 33.09645 135.69647 37211 ft 575 kts 86°
2026-05-05 10:05 33.10607 135.79112 37203 ft 575 kts 86°
2026-05-05 10:06 33.11563 135.88579 37215 ft 574 kts 86°
2026-05-05 10:06 33.12511 135.98049 37207 ft 574 kts 86°
2026-05-05 10:07 33.13452 136.07512 37221 ft 574 kts 86°
2026-05-05 10:07 33.14380 136.16917 37215 ft 574 kts 86°
2026-05-05 10:08 33.15306 136.26382 37212 ft 574 kts 86°
2026-05-05 10:08 33.16225 136.35843 37216 ft 574 kts 86°
2026-05-05 10:09 33.17137 136.45312 37211 ft 574 kts 86°
2026-05-05 10:09 33.18044 136.54785 37211 ft 574 kts 86°
2026-05-05 10:10 33.18950 136.64247 37214 ft 574 kts 86°
2026-05-05 10:10 33.19851 136.73727 37215 ft 574 kts 86°
2026-05-05 10:11 33.20745 136.83206 37216 ft 574 kts 86°
2026-05-05 10:11 33.21625 136.92629 37213 ft 574 kts 87°
2026-05-05 10:12 33.22504 137.02117 37214 ft 574 kts 87°
2026-05-05 10:12 33.23470 137.11584 37212 ft 576 kts 82°
2026-05-05 10:13 33.25096 137.20959 37225 ft 577 kts 79°
2026-05-05 10:13 33.26838 137.30320 37215 ft 577 kts 79°
2026-05-05 10:14 33.28526 137.39643 37218 ft 577 kts 80°
2026-05-05 10:14 33.30176 137.49027 37222 ft 577 kts 80°
2026-05-05 10:15 33.31810 137.58413 37221 ft 577 kts 80°
2026-05-05 10:15 33.33444 137.67811 37220 ft 577 kts 80°
2026-05-05 10:16 33.35075 137.77218 37222 ft 577 kts 80°
2026-05-05 10:16 33.36697 137.86619 37223 ft 577 kts 80°
2026-05-05 10:17 33.38315 137.96039 37224 ft 577 kts 80°
2026-05-05 10:17 33.39923 138.05449 37226 ft 576 kts 80°
2026-05-05 10:18 33.41519 138.14836 37228 ft 576 kts 80°
2026-05-05 10:18 33.43139 138.24172 37226 ft 576 kts 77°
2026-05-05 10:19 33.45735 138.33254 37237 ft 576 kts 66°
2026-05-05 10:19 33.49436 138.41736 37241 ft 574 kts 56°
2026-05-05 10:20 33.53673 138.49854 37244 ft 574 kts 55°
2026-05-05 10:20 33.57905 138.57987 37245 ft 575 kts 56°
2026-05-05 10:21 33.62052 138.66133 37243 ft 575 kts 56°
2026-05-05 10:21 33.66201 138.74350 37249 ft 576 kts 56°
2026-05-05 10:22 33.70357 138.82581 37252 ft 576 kts 56°
2026-05-05 10:22 33.74514 138.90821 37256 ft 577 kts 56°
2026-05-05 10:23 33.78663 138.99064 37255 ft 577 kts 56°
2026-05-05 10:23 33.82817 139.07336 37260 ft 577 kts 56°
2026-05-05 10:24 33.86960 139.15607 37260 ft 577 kts 56°
2026-05-05 10:24 33.91100 139.23892 37246 ft 578 kts 56°
2026-05-05 10:25 33.95215 139.32147 37269 ft 578 kts 56°
2026-05-05 10:25 33.99343 139.40447 37273 ft 578 kts 56°
2026-05-05 10:26 34.03471 139.48767 37259 ft 578 kts 56°
2026-05-05 10:26 34.07691 139.57019 37260 ft 576 kts 52°
2026-05-05 10:27 34.12603 139.64614 37266 ft 573 kts 46°
2026-05-05 10:27 34.17664 139.72047 37273 ft 573 kts 46°
2026-05-05 10:28 34.22675 139.79543 37275 ft 574 kts 47°
2026-05-05 10:28 34.27651 139.87093 37269 ft 575 kts 47°
2026-05-05 10:29 34.32599 139.94615 37031 ft 565 kts 47°
2026-05-05 10:29 34.35036 139.98317 36474 ft 562 kts 47°
2026-05-05 10:29 34.37484 140.02039 35604 ft 568 kts 47°
2026-05-05 10:30 34.39954 140.05802 34649 ft 575 kts 48°
2026-05-05 10:30 34.42424 140.09575 33741 ft 580 kts 48°
2026-05-05 10:30 34.44921 140.13406 33130 ft 576 kts 49°
2026-05-05 10:30 34.47258 140.17317 32719 ft 571 kts 54°
2026-05-05 10:31 34.49376 140.21355 32334 ft 564 kts 55°
2026-05-05 10:31 34.51420 140.25382 31904 ft 557 kts 56°
2026-05-05 10:31 34.53433 140.29378 31419 ft 553 kts 55°
2026-05-05 10:31 34.55437 140.33338 30931 ft 549 kts 54°
2026-05-05 10:32 34.57437 140.37258 30451 ft 544 kts 54°
2026-05-05 10:32 34.59433 140.41144 29967 ft 539 kts 54°
2026-05-05 10:32 34.61405 140.44975 29513 ft 532 kts 54°
2026-05-05 10:32 34.63355 140.48762 28944 ft 528 kts 54°
2026-05-05 10:33 34.65295 140.52536 28210 ft 527 kts 54°
2026-05-05 10:33 34.67242 140.56329 27289 ft 531 kts 54°
2026-05-05 10:33 34.69203 140.60156 26295 ft 533 kts 54°
2026-05-05 10:33 34.71447 140.63672 25409 ft 522 kts 39°
2026-05-05 10:34 34.74306 140.66265 24711 ft 504 kts 23°
2026-05-05 10:34 34.77452 140.67977 24032 ft 489 kts 11°
2026-05-05 10:34 34.80703 140.68799 23232 ft 466 kts 359°
2026-05-05 10:34 34.83878 140.69092 22351 ft 463 kts 359°
2026-05-05 10:35 34.87117 140.69413 21613 ft 458 kts 360°
2026-05-05 10:35 34.90224 140.69759 21010 ft 451 kts
2026-05-05 10:35 34.93329 140.70132 20403 ft 445 kts
2026-05-05 10:35 34.96392 140.70512 19795 ft 439 kts
2026-05-05 10:36 34.99411 140.70891 19172 ft 434 kts
2026-05-05 10:36 35.02399 140.71265 18573 ft 429 kts
2026-05-05 10:36 35.05352 140.71634 17890 ft 424 kts
2026-05-05 10:36 35.08270 140.72011 17182 ft 420 kts
2026-05-05 10:37 35.11151 140.72551 16481 ft 418 kts
2026-05-05 10:37 35.13041 140.72980 16023 ft 416 kts
2026-05-05 10:37 35.15872 140.73666 15347 ft 413 kts
2026-05-05 10:37 35.18671 140.74350 14693 ft 410 kts
2026-05-05 10:38 35.21458 140.75020 14038 ft 407 kts
2026-05-05 10:38 35.24229 140.75673 13328 ft 404 kts
2026-05-05 10:38 35.26978 140.76310 12651 ft 401 kts
2026-05-05 10:38 35.29709 140.76936 12006 ft 397 kts
2026-05-05 10:39 35.32401 140.77552 11591 ft 389 kts
2026-05-05 10:39 35.35018 140.78150 11371 ft 376 kts
2026-05-05 10:39 35.37543 140.78728 11169 ft 363 kts
2026-05-05 10:39 35.40004 140.79293 10818 ft 357 kts
2026-05-05 10:40 35.42435 140.79847 10346 ft 355 kts
2026-05-05 10:40 35.44838 140.80398 10144 ft 348 kts
2026-05-05 10:40 35.47176 140.80936 10027 ft 334 kts
2026-05-05 10:40 35.49411 140.81449 10019 ft 319 kts
2026-05-05 10:41 35.51544 140.81940 10011 ft 304 kts
2026-05-05 10:41 35.53576 140.82408 10017 ft 290 kts
2026-05-05 10:41 35.55520 140.82854 9976 ft 278 kts
2026-05-05 10:41 35.57396 140.83172 9681 ft 267 kts 353°
2026-05-05 10:42 35.60478 140.81124 8861 ft 257 kts 321°
2026-05-05 10:42 35.61921 140.79827 8570 ft 255 kts 322°
2026-05-05 10:42 35.63349 140.78554 8270 ft 254 kts 322°
2026-05-05 10:43 35.64774 140.77276 8006 ft 251 kts 322°
2026-05-05 10:43 35.66180 140.76010 7693 ft 251 kts 322°
2026-05-05 10:43 35.67583 140.74744 7415 ft 249 kts 322°
2026-05-05 10:43 35.68977 140.73482 7144 ft 247 kts 322°
2026-05-05 10:44 35.70361 140.72228 6820 ft 248 kts 322°
2026-05-05 10:44 35.71744 140.70973 6566 ft 245 kts 322°
2026-05-05 10:44 35.73101 140.69743 6209 ft 247 kts 322°
2026-05-05 10:44 35.74476 140.68494 6023 ft 242 kts 322°
2026-05-05 10:45 35.75806 140.67285 5997 ft 235 kts 322°
2026-05-05 10:45 35.77130 140.66082 6013 ft 236 kts 322°
2026-05-05 10:45 35.78445 140.64885 5987 ft 234 kts 322°
2026-05-05 10:45 35.79758 140.63691 6011 ft 235 kts 322°
2026-05-05 10:46 35.81071 140.62495 6017 ft 235 kts 322°
2026-05-05 10:46 35.82388 140.61296 6006 ft 236 kts 322°
2026-05-05 10:46 35.83706 140.60091 6007 ft 235 kts 321°
2026-05-05 10:46 35.84862 140.58691 5871 ft 234 kts 309°
2026-05-05 10:47 35.85877 140.57131 5651 ft 233 kts 307°
2026-05-05 10:47 35.86881 140.55559 5315 ft 234 kts 307°
2026-05-05 10:47 35.87903 140.53991 4977 ft 235 kts 307°
2026-05-05 10:47 35.88930 140.52418 4654 ft 236 kts 307°
2026-05-05 10:48 35.89958 140.50841 4347 ft 236 kts 306°
2026-05-05 10:48 35.90981 140.49265 4094 ft 233 kts 306°
2026-05-05 10:48 35.91978 140.47733 4024 ft 227 kts 306°
2026-05-05 10:48 35.92961 140.46215 4013 ft 229 kts 306°
2026-05-05 10:49 35.93954 140.44685 4005 ft 227 kts 306°
2026-05-05 10:49 35.94933 140.43174 3999 ft 224 kts 306°
2026-05-05 10:49 35.95908 140.41671 4045 ft 223 kts 306°
2026-05-05 10:49 35.96855 140.40142 4022 ft 226 kts 304°
2026-05-05 10:50 35.97793 140.38583 3917 ft 225 kts 304°
2026-05-05 10:50 35.98725 140.37031 3784 ft 226 kts 304°
2026-05-05 10:50 35.99664 140.35472 3562 ft 225 kts 304°
2026-05-05 10:50 36.00593 140.33929 3317 ft 221 kts 303°
2026-05-05 10:51 36.01503 140.32420 3098 ft 216 kts 303°
2026-05-05 10:51 36.02375 140.30977 3019 ft 203 kts 303°
2026-05-05 10:51 36.03195 140.29616 3023 ft 197 kts 301°
2026-05-05 10:51 36.03648 140.28085 2982 ft 187 kts 268°
2026-05-05 10:52 36.03628 140.26483 2992 ft 188 kts 264°
2026-05-05 10:52 36.03351 140.24985 2971 ft 179 kts 233°
2026-05-05 10:52 36.02392 140.24107 2991 ft 172 kts 196°
2026-05-05 10:52 36.01205 140.23938 2998 ft 173 kts 181°
2026-05-05 10:53 36.00001 140.24044 2976 ft 175 kts 165°
2026-05-05 10:53 35.98880 140.24632 2995 ft 175 kts 156°
2026-05-05 10:53 35.97800 140.25308 2999 ft 174 kts 154°
2026-05-05 10:53 35.96732 140.26044 3005 ft 176 kts 153°
2026-05-05 10:54 35.95665 140.26809 2999 ft 178 kts 152°
2026-05-05 10:54 35.94617 140.27570 2985 ft 167 kts 152°
2026-05-05 10:54 35.93649 140.28275 2986 ft 156 kts 152°
2026-05-05 10:54 35.92733 140.28942 2896 ft 151 kts 152°
2026-05-05 10:55 35.91864 140.29575 2695 ft 139 kts 152°
2026-05-05 10:55 35.91051 140.30165 2525 ft 135 kts 152°
2026-05-05 10:55 35.90249 140.30749 2351 ft 133 kts 152°
2026-05-05 10:55 35.89459 140.31322 2162 ft 131 kts 152°
2026-05-05 10:56 35.88680 140.31888 1994 ft 129 kts 152°
2026-05-05 10:56 35.87909 140.32449 1821 ft 128 kts 152°
2026-05-05 10:56 35.87138 140.33009 1670 ft 129 kts 152°
2026-05-05 10:56 35.86361 140.33573 1462 ft 130 kts 151°
2026-05-05 10:57 35.85581 140.34140 1298 ft 130 kts 152°
2026-05-05 10:57 35.84799 140.34708 1121 ft 131 kts 152°
2026-05-05 10:57 35.84011 140.35279 946 ft 132 kts 151°
2026-05-05 10:57 35.83218 140.35856 775 ft 136 kts 150°
2026-05-05 10:58 35.82400 140.36450 620 ft 138 kts 150°
2026-05-05 10:58 35.81573 140.37051 465 ft 138 kts 150°
2026-05-05 10:58 35.80741 140.37661 262 ft 139 kts 151°
2026-05-05 10:58 35.79915 140.38247 151 ft 129 kts 150°
2026-05-05 10:59 35.79304 140.38687 151 ft 69 kts 149°
2026-05-05 10:59 35.78968 140.38930 148 ft 45 kts 149°
2026-05-05 10:59 35.78735 140.39058 147 ft 33 kts 168°
2026-05-05 10:59 35.78549 140.39089 148 ft 22 kts 168°
2026-05-05 11:00 35.78401 140.39129 148 ft 22 kts 166°
2026-05-05 11:00 35.78254 140.39173 148 ft 22 kts 166°
2026-05-05 11:00 35.78164 140.39194 148 ft 11 kts 190°
2026-05-05 11:00 35.78108 140.39128 148 ft 11 kts 226°
2026-05-05 11:01 35.78034 140.39132 148 ft 12 kts 152°
2026-05-05 11:01 35.77960 140.39167 148 ft 12 kts 181°
2026-05-05 11:01 35.77888 140.39195 148 ft 12 kts 131°
2026-05-05 11:01 35.77826 140.39261 148 ft 12 kts 149°
2026-05-05 11:02 35.77755 140.39312 148 ft 12 kts 149°
2026-05-05 11:02 35.77684 140.39363 148 ft 12 kts 150°
2026-05-05 11:02 35.77613 140.39415 149 ft 12 kts 149°
2026-05-05 11:02 35.77542 140.39466 149 ft 12 kts 149°
2026-05-05 11:03 35.77472 140.39517 149 ft 12 kts 150°
2026-05-05 11:03 35.77406 140.39564 149 ft 10 kts 150°
2026-05-05 11:03 35.77340 140.39551 149 ft 10 kts 202°
2026-05-05 11:03 35.77275 140.39516 149 ft 9 kts 204°
2026-05-05 11:04 35.77245 140.39485 149 ft 5 kts 255°
2026-05-05 11:04 35.77267 140.39452 149 ft 6 kts 329°
2026-05-05 11:04 35.77304 140.39427 149 ft 6 kts 330°
2026-05-05 11:04 35.77319 140.39416 149 ft 1 kts 330°
2026-05-05 11:05 35.77321 140.39415 149 ft 0 kts 330°
2026-05-05 11:32 35.77321 140.39416 122 ft 0 kts 330°